This is the latest recevied weather packets stored in our database for station/object KA9CBS. If no packets are shown the sender has not sent any weather packets the latest 10 day(s).
| Time | Temp. | Humidity | Pressure | Rain* | Wind** | Luminosity | Snow |
|---|---|---|---|---|---|---|---|
| 1777983407 | 17.78° C | 74% | 1008.3 hPa | 0 mm | - | 15 W/m² | - |
| 1777983103 | 17.78° C | 74% | 1008.1 hPa | 0 mm | - | 23 W/m² | - |
| 1777982800 | 17.78° C | 73% | 1008.3 hPa | 0 mm | - | 15 W/m² | - |
| 1777982496 | 17.78° C | 73% | 1007.9 hPa | 0 mm | - | 9 W/m² | - |
| 1777982195 | 17.22° C | 73% | 1007.9 hPa | 0 mm | - | 15 W/m² | - |
| 1777981893 | 17.22° C | 74% | 1008 hPa | 0 mm | - | 16 W/m² | - |
| 1777981590 | 17.22° C | 75% | 1007.9 hPa | 0 mm | - | 13 W/m² | - |
| 1777981286 | 17.22° C | 74% | 1007.8 hPa | 0 mm | - | 9 W/m² | - |
| 1777980983 | 17.22° C | 74% | 1008.3 hPa | 0 mm | - | 6 W/m² | - |
| 1777980680 | 17.22° C | 74% | 1008.1 hPa | 0 mm | - | 6 W/m² | - |
| 1777980376 | 17.78° C | 73% | 1008.1 hPa | 0 mm | - | 4 W/m² | - |
| 1777980074 | 17.78° C | 73% | 1007.9 hPa | 0 mm | - | 5 W/m² | - |
| 1777979768 | 17.78° C | 72% | 1007.9 hPa | 0 mm | - | 3 W/m² | - |
| 1777979464 | 17.78° C | 71% | 1008 hPa | 0 mm | - | 1 W/m² | - |
| 1777979161 | 17.78° C | 71% | 1008.1 hPa | 0 mm | - | 0 W/m² | - |
| 1777978858 | 17.78° C | 70% | 1007.9 hPa | 0 mm | - | 0 W/m² | - |
| 1777978554 | 18.33° C | 70% | 1008.1 hPa | 0 mm | - | 0 W/m² | - |
| 1777978249 | 18.33° C | 70% | 1007.8 hPa | 0 mm | - | 0 W/m² | - |
| 1777977941 | 18.33° C | 70% | 1007.8 hPa | 0 mm | - | 0 W/m² | - |
| 1777977639 | 18.33° C | 70% | 1007.8 hPa | 0 mm | - | 0 W/m² | - |
| 1777977336 | 18.33° C | 69% | 1007.7 hPa | 0 mm | - | 0 W/m² | - |
| 1777977033 | 18.33° C | 69% | 1007.9 hPa | 0 mm | - | 0 W/m² | - |
| 1777976730 | 18.33° C | 70% | 1008 hPa | 0 mm | - | 0 W/m² | - |
| 1777976427 | 17.78° C | 71% | 1007.9 hPa | 0 mm | - | 0 W/m² | - |
| 1777976126 | 17.78° C | 72% | 1007.9 hPa | 0 mm | - | 0 W/m² | - |
* Rain latest hour (hover to see other rain measurements)
** Current wind speed in m/s (hover to see current wind gust speed)